Regional Weather Roundup
Issued by NWS

Home | Current Version | Previous Version | Text Only | Print | Product List | Glossary Off
Versions: 1 2 3 4 5 6 7 8 9 10 11 12 13 14 15 16 17 18 19 20 21 22 23 24 25 26 27 28 29 30 31 32 33 34 35 36 37 38 39 40 41 42 43 44 45 46 47 48 49 50

910
ASUS43 KIND 271159
RWRIN

WEATHER ROUNDUP FOR INDIANA
NATIONAL WEATHER SERVICE INDIANAPOLIS IN
700 AM EST MON FEB 27 2017

NOTE: "FAIR" INDICATES FEW OR NO CLOUDS BELOW 12,000 FEET WITH NO
SIGNIFICANT WEATHER AND/OR OBSTRUCTIONS TO VISIBILITY.

* - STATION DOES NOT REPORT WEATHER SUCH AS PRECIPITATION OR FOG.

+ - STATION NOT QUALITY CONTROLLED BY THE NATIONAL WEATHER SERVICE.
    USE DATA WITH CAUTION...ESPECIALLY DEWPOINT AND RELATIVE
    HUMIDITY OBSERVATIONS.

INZ001>003-010>013-019-020-271300-
NORTHWEST INDIANA

CITY           SKY/WX    TMP DP  RH WIND       PRES   REMARKS
GARY /AIRPORT/ MOCLDY    34  27  75 CALM      30.14R
KNOX *+        CLEAR     27   9  46 S5        30.15S WCI  21

$$

LMZ046-743>745-271300-
SOUTHERN LAKE MICHIGAN

STATION/POSITION TIME  TEMP    WIND        PRES    WAVE
                       AIR SEA DIR/SP/G            HT
                 (UTC) (F)     (DEG/KT/KT) (MB)    (FT)
BURNS HARBOR     1140   33     180/  8/  9 1021.0R
MICHIGAN CITY    1130   36     180/  9/ 10   N/A

$$

INZ004-005-014>016-021>024-271300-
NORTH CENTRAL INDIANA

CITY           SKY/WX    TMP DP  RH WIND       PRES   REMARKS
GOSHEN         CLEAR     30  21  69 S6        30.16S WCI  24
6HR MIN TEMP:  30; 6HR MAX TEMP:  35;

SOUTH BEND     PTCLDY    30  23  75 SW7       30.15S WCI  23
6HR MIN TEMP:  29; 6HR MAX TEMP:  33;


$$

INZ006>009-017-018-025>027-271300-
NORTHEAST INDIANA

CITY           SKY/WX    TMP DP  RH WIND       PRES   REMARKS
ANGOLA *+      CLEAR     27  21  80 CALM      30.16S
FORT WAYNE     PTCLDY    29  22  75 S7        30.18S WCI  22
6HR MIN TEMP:  29; 6HR MAX TEMP:  34;

KENDALLVILLE + CLEAR     31  22  70 S3        30.16S

$$

INZ028-029-035-036-043>045-051>053-271300-
WEST CENTRAL INDIANA

CITY           SKY/WX    TMP DP  RH WIND       PRES   REMARKS
LAFAYETTE      CLOUDY    34  29  82 CALM      30.17R
6HR MIN TEMP:  28; 6HR MAX TEMP:  34;

TERRE HAUTE    CLOUDY    41  33  73 E3        30.18R
6HR MIN TEMP:  39; 6HR MAX TEMP:  42; 6HR PCP: TRACE;


$$

INZ030>032-037>040-046>048-054>057-064-065-271300-
CENTRAL INDIANA

CITY           SKY/WX    TMP DP  RH WIND       PRES   REMARKS
COLUMBUS       CLOUDY    39  28  65 SE5       30.21
GREENWOOD *+   CLOUDY    41  28  58 SE3       30.20S
6HR MIN TEMP:  41; 6HR MAX TEMP:  44;

INDIANAPOLIS   CLOUDY    40  32  73 SE6       30.19S
6HR MIN TEMP:  39; 6HR MAX TEMP:  43; 6HR PCP: TRACE;

-EAGLE CREEK   CLOUDY    41  32  70 S5        30.19R
6HR MIN TEMP:  40; 6HR MAX TEMP:  43;

KOKOMO +       CLOUDY    34  30  85 S7        30.18R WCI  28
6HR MIN TEMP:  33; 6HR MAX TEMP:  37;

MT COMFORT *+  CLOUDY    39  32  75 SE5       30.19F
SHELBYVILLE    CLOUDY    41  26  55 SE6       30.19S
6HR MIN TEMP:  41; 6HR MAX TEMP:  44;


$$

INZ033-034-041-042-049-050-058-059-271300-
EAST CENTRAL INDIANA

CITY           SKY/WX    TMP DP  RH WIND       PRES   REMARKS
MUNCIE         CLOUDY    41  32  70 S6        30.19R
6HR MIN TEMP:  39; 6HR MAX TEMP:  42;


$$

INZ060-061-067>069-081>083-085>088-271300-
SOUTHWEST INDIANA

CITY           SKY/WX    TMP DP  RH WIND       PRES   REMARKS
EVANSVILLE     LGT RAIN  44  40  85 SE5       30.18S
6HR MIN TEMP:  44; 6HR MAX TEMP:  47; 6HR PCP:  0.02;

HUNTINGBURG *+ CLOUDY    43  39  86 SE6       30.19S
6HR MIN TEMP:  41; 6HR MAX TEMP:  44; 6HR PCP:  0.01;


$$

INZ062-063-066-070>080-084-089>092-271300-
SOUTH CENTRAL AND SOUTHEAST INDIANA

CITY           SKY/WX    TMP DP  RH WIND       PRES   REMARKS
BLOOMINGTON    CLOUDY    43  27  53 SE6       30.18S
6HR MIN TEMP:  41; 6HR MAX TEMP:  44;

MADISON *+     CLOUDY    41  36  81 CALM      30.24S
SEYMOUR +      DRIZZLE   43  34  70 S5        30.22S

$$





USA.gov is the U.S. government's official web portal to all federal, state and local government web resources and services.